Weather in Alekseyevka

Russia / Omsk Oblast     55°20′58″N   72°04′33″E
temp.,
°C
wind,
m/s
gust,
m/s
humid.,
%
clouds,
%
prec.,
mm/h
press.,
hPa
HPBL,
m
23 april, fri
fri2300:00+1sse49590 0.0 1044170
03:000sse49640 0.0 1044189
06:000s410630 0.0 1044257
09:00+4s69440 0.0 1044663
12:00+7s67345 0.0 10431112
15:00+9s66305 0.0 10421549
18:00+9s5630100 0.0 10401380
21:00+5sse384782 0.0 1041153
24 april, sat
sat2400:00+4sse51152100 0.0 1039259
03:00+2sse41059100 0.0 1038226
06:00+1sse31063100 0.0 1037215
09:00+4sse61048100 0.0 1036530
12:00+8s7836100 0.0 10351225
15:00+10s7830100 0.0 10321476
18:00+9s5737100 0.0 10311251
21:00+7se3847100 0.0 1030192
25 april, sun
sun2500:00+6se51151100 0.0 1029298
03:00+5se51252100 0.0 1027327
06:00+4se51156100 0.0 1026314
09:00+7se61349100 0.0 1025550
12:00+10se81138100 0.0 1023845
15:00+14sse8112886 0.0 10202022
18:00+14sse693295 0.0 10191824
21:00+10sse61342100 0.0 1018345
26 april, mon
mon2600:00+8sse465467 0.0 1018110
03:00+7ssw3779100 0.0 1017102
06:00+8s61278100 0.1 1016233
09:00+10sw6127753 0.4 1016848
12:00+13wsw913395 0.4 10162071
15:00+14w9132993 0.0 10172417
18:00+13w712305 0.0 10183040
21:00+10w494188 0.0 1019231
27 april, tue
tue2700:00+8wsw475098 0.0 1019137
03:00+6wsw3658100 0.0 1020112
06:00+6sw3460100 0.0 102051
09:00+10sw4648100 0.0 1020316
12:00+10sw7750100 0.0 1020966
15:00+7se51078100 0.6 1017554
18:00+7se51286100 2.9 1013483
21:00+9se71579100 0.4 1008391